Location: Unspecified
(0.0000°N, 0.0000°E)
Time: 00:32:44
(UTC+00:00)

Amsat-Oscar-6 - Pass Details

Date: 26 June 2019
Orbit: 1448 x 1454 km, 101.8° (Epoch: 20 July)

Event Time Altitude Azimuth Distance (km) Brightness Sun altitude
Rises 03:12:08 0° 17° (NNE) 4,542 ? -38.5°
Reaches altitude 10° 03:14:54 10° 17° (NNE) 3,565 ? -37.9°
Enters shadow 03:23:13 86° 97° (E) 1,459 ? -36.1°
